TimeMDT,TemperatureF,Dew PointF,Humidity,Sea Level PressureIn,VisibilityMPH,Wind Direction,Wind SpeedMPH,Gust SpeedMPH,PrecipitationIn,Events,Conditions,WindDirDegrees,DateUTC
5:00 AM,32.0,24.8,75,30.21,15.0,WNW,5.8,-,N/A,,Partly Cloudy,300,2013-05-05 11:00:00
6:00 AM,32,24,63,30.21,25,WNW,5.8,,,,Scattered Clouds,300,2013-05-05 12:00:00
6:00 AM,32.0,24.8,75,30.21,25.0,WNW,5.8,-,N/A,,Scattered Clouds,300,2013-05-05 12:00:00
7:00 AM,33.8,26.6,75,30.20,30.0,WNW,5.8,-,N/A,,Scattered Clouds,300,2013-05-05 13:00:00
8:00 AM,42.8,30.2,61,30.18,30.0,NW,8.1,-,N/A,,Scattered Clouds,320,2013-05-05 14:00:00
9:00 AM,51.8,30.2,44,30.17,30.0,NNW,11.5,-,N/A,,Partly Cloudy,330,2013-05-05 15:00:00
10:00 AM,60.8,30.2,31,30.16,30.0,NNW,8.1,-,N/A,,Partly Cloudy,340,2013-05-05 16:00:00
11:00 AM,64.4,33.8,32,30.15,30.0,Variable,2.3,-,N/A,,Clear,0,2013-05-05 17:00:00
12:00 PM,67,29,13,30.13,28,SSW,4.6,,,,Scattered Clouds,210,2013-05-05 18:00:00
12:00 PM,68.0,28.4,23,30.13,30.0,West,3.5,-,N/A,,Partly Cloudy,260,2013-05-05 18:00:00
1:00 PM,68.0,30.2,24,30.11,30.0,Variable,2.3,-,N/A,,Clear,0,2013-05-05 19:00:00
2:00 PM,69.8,30.2,23,30.09,30.0,Variable,5.8,-,N/A,,Clear,0,2013-05-05 20:00:00
3:00 PM,71.6,32.0,23,30.08,30.0,Calm,Calm,-,N/A,,Clear,0,2013-05-05 21:00:00
4:00 PM,71.6,30.2,22,30.05,30.0,SSE,2.3,-,N/A,,Clear,150,2013-05-05 22:00:00
5:00 PM,73.4,32.0,22,30.03,30.0,WSW,3.5,-,N/A,,Clear,240,2013-05-05 23:00:00
6:00 PM,73,32,13,30.02,28,SE,5.8,,,,,130,2013-05-06 00:00:00
6:00 PM,73.4,32.0,22,30.02,30.0,South,8.1,-,N/A,,Clear,170,2013-05-06 00:00:00
7:00 PM,71.6,32.0,23,30.01,30.0,SSE,10.4,-,N/A,,Clear,150,2013-05-06 01:00:00
8:00 PM,68.0,33.8,28,29.99,30.0,SSE,10.4,-,N/A,,Clear,160,2013-05-06 02:00:00
9:00 PM,59.0,33.8,39,30.00,25.0,SSE,9.2,-,N/A,,Clear,160,2013-05-06 03:00:00
10:00 PM,50.0,30.2,47,29.99,20.0,South,10.4,-,N/A,,Clear,170,2013-05-06 04:00:00